Helicity
66 117 155 125 89 66 65 72 85 89 108 114 112 102 87 77 74 75 87 98 98 111 126 121 102 93 78 85 93 94 82 87 91 89 86 91 118 126 122 118 119 125 149
115 162 177 140 90 69 52 71 88 101 114 104 82 73 63 39 37 51 80 87 85 95 94 74 64 56 55 73 72 54 42 74 88 94 84 75 72 114 127 141 158 183 168
116 145 158 120 98 64 71 93 91 93 85 76 76 66 56 53 63 87 95 101 65 59 45 35 31 45 46 51 49 49 47 46 69 118 143 129 136 87 86 83 81 161 168
137 152 148 143 79 56 76 79 82 73 63 61 57 48 46 60 65 84 80 74 62 31 27 31 32 32 43 48 65 60 61 68 55 65 119 147 167 131 68 78 39 -37 20
121 118 108 71 55 67 67 73 69 63 53 46 46 50 66 65 52 33 27 33 29 38 29 19 14 25 36 44 48 39 53 86 102 121 105 90 114 117 123 54 47 -11 -38
66 57 50 58 64 74 71 79 73 52 52 53 43 51 52 39 17 9 2 12 37 24 19 12 11 22 33 27 39 38 60 93 114 131 124 120 122 89 74 50 16 7 45
56 52 48 62 56 64 72 84 74 54 53 51 48 41 28 12 -6 -6 2 5 14 17 1 -1 4 17 15 23 35 42 66 94 107 107 118 109 93 73 45 35 -10 9 32
48 47 42 44 43 54 74 86 76 65 56 56 40 31 17 13 4 2 7 5 11 2 -7 -10 5 7 7 21 15 45 68 71 103 105 113 100 91 66 52 39 -2 -60 -59
42 41 31 32 32 44 65 87 81 70 60 49 36 21 19 13 12 24 29 18 3 7 15 13 14 12 21 20 4 24 36 48 61 77 86 89 81 75 37 16 4 -2 -50
21 38 40 35 32 30 48 74 77 68 49 38 32 29 23 15 17 26 24 13 16 30 32 35 30 21 27 26 10 17 31 35 51 45 51 45 67 42 24 3 -19 -26 15
38 48 52 51 54 66 62 73 68 57 49 44 34 23 9 5 9 18 20 22 34 43 46 46 42 37 33 33 31 36 31 26 32 34 18 22 33 56 34 5 -20 -43 -34
31 50 56 56 52 57 72 66 42 43 50 44 31 9 1 -1 3 11 12 13 32 39 42 43 46 40 42 37 43 28 24 32 36 37 27 24 26 18 20 16 3 -8 -27
-27 4 30 24 22 -2 -4 -27 -8 6 52 28 17 9 6 6 12 19 17 25 41 41 41 44 43 43 38 40 48 38 26 40 54 54 53 43 38 29 28 29 30 26 5
0 24 29 23 26 11 -34 -23 -6 50 69 59 52 17 4 11 23 27 34 44 47 49 48 45 46 45 49 52 49 43 46 51 58 64 64 63 72 56 48 45 47 59 55
20 20 21 29 36 42 33 16 19 53 75 62 44 28 23 28 35 43 51 53 51 53 55 60 59 59 65 71 62 51 51 58 66 78 82 88 87 70 67 64 68 68 73
32 39 48 47 43 34 26 28 35 44 56 38 46 52 35 41 42 53 56 58 55 56 67 67 71 71 85 72 67 56 61 55 68 74 81 85 99 86 86 97 95 88 76
23 34 28 24 22 17 19 30 29 22 9 32 53 49 54 56 53 62 67 70 71 75 79 81 83 82 88 71 68 73 75 65 60 66 75 87 95 90 83 96 102 104 105
-11 4 32 35 29 23 29 25 30 15 -2 22 47 63 69 63 66 72 82 87 96 91 97 97 98 101 101 79 80 94 96 82 70 70 81 91 84 85 84 87 89 98 103
-29 16 16 27 13 24 22 31 46 18 5 43 54 73 78 71 79 84 102 111 116 110 108 118 111 115 112 93 87 106 119 102 85 82 88 90 86 75 73 82 87 102 97
12 -3 25 11 -21 -63 -23 -2 43 21 41 54 62 82 71 78 93 110 120 136 138 132 136 119 129 119 125 113 97 110 149 124 114 96 90 84 112 85 87 99 100 102 101
7 22 42 64 59 -40 -20 0 48 38 46 37 45 62 82 92 106 114 141 138 135 140 139 139 139 144 149 138 107 95 165 162 144 129 114 117 90 89 90 90 112 111 131
25 30 10 22 45 60 54 20 35 64 32 32 43 63 77 99 110 105 114 137 147 155 159 169 163 169 174 137 129 109 111 148 169 149 139 117 89 94 93 110 106 118 135
34 38 27 27 36 59 66 39 60 69 65 48 48 49 65 87 100 109 117 147 166 181 172 188 183 167 182 188 136 105 95 109 174 171 134 100 97 101 111 109 110 124 167
19 25 31 36 37 39 51 59 66 80 61 65 85 70 69 86 110 132 144 159 173 179 181 186 172 163 163 164 177 164 156 118 145 158 157 142 127 143 150 146 143 170 169
20 12 11 25 30 38 48 66 76 75 53 46 51 55 59 64 82 93 114 142 159 178 177 170 170 157 125 149 149 147 149 160 155 200 229 211 213 207 193 182 174 192 193
46 42 28 19 22 32 42 67 75 63 59 74 86 78 82 99 108 112 111 76 63 74 76 72 103 127 87 78 89 94 96 96 111 224 256 225 224 215 214 216 198 206 181
Wind_Speed
33 24 19 26 31 36 40 39 42 44 48 54 59 58 62 65 63 63 59 58 60 59 56 53 54 54 56 57 57 57 61 63 65 71 75 69 71 72 74 77 79 82 84
33 29 26 30 34 41 39 41 42 45 50 52 55 54 59 57 62 58 60 56 54 52 47 46 46 49 53 54 57 61 63 59 60 63 72 75 72 69 67 65 64 75 75
35 32 31 31 36 41 42 42 42 47 49 51 51 53 56 58 56 58 54 51 48 47 45 44 44 47 50 53 55 58 58 61 61 57 57 71 69 79 68 72 69 67 67
35 32 33 36 39 42 40 38 41 43 46 47 50 53 56 56 51 49 45 47 46 45 46 47 48 48 44 46 51 54 55 55 57 56 51 51 57 69 78 63 70 62 61
37 34 33 36 38 38 37 37 40 42 45 47 46 51 50 47 45 42 42 43 43 45 47 49 51 50 48 49 51 56 55 52 50 46 48 48 45 43 51 71 63 57 56
36 35 33 36 40 38 37 36 38 42 42 44 48 46 43 42 39 38 39 41 46 48 48 50 52 51 49 52 53 56 53 47 46 42 39 37 37 35 34 44 58 63 59
35 34 38 43 41 38 37 36 37 41 41 45 47 39 36 34 35 36 38 44 46 48 49 51 54 52 54 53 50 50 50 47 45 41 36 33 27 22 12 8 9 45 56
37 39 43 44 45 44 40 38 38 41 42 41 38 34 33 35 31 33 40 43 45 48 46 52 51 52 54 53 55 46 47 47 43 38 35 31 26 21 17 11 5 19 22
47 42 41 42 46 47 43 39 38 38 39 37 37 35 32 31 35 43 44 44 45 44 46 46 48 51 49 51 55 52 48 46 46 43 38 33 25 20 14 14 12 8 25
46 39 38 44 50 52 50 43 39 39 43 42 40 33 31 37 44 46 46 44 43 39 41 44 45 50 47 47 52 49 46 45 45 45 45 51 40 26 19 12 15 18 21
47 40 39 44 44 48 49 47 43 44 47 41 36 41 49 48 48 46 47 44 38 35 38 37 44 45 45 44 47 44 42 42 39 36 34 38 41 40 37 29 20 18 18
50 47 28 34 30 27 36 53 52 52 48 44 48 54 53 51 50 49 47 43 35 34 32 36 42 43 42 40 40 45 47 42 38 32 27 27 30 34 34 29 25 22 19
70 24 55 37 21 12 20 58 64 54 53 58 59 58 57 55 52 50 48 39 31 31 31 33 37 38 38 40 38 42 46 41 36 36 32 31 30 29 29 30 23 19 18
67 59 58 59 47 23 39 62 67 11 36 56 58 63 62 58 53 51 46 28 27 28 29 29 31 34 36 36 38 43 44 39 37 35 36 37 35 33 31 26 25 27 23
61 55 61 63 60 59 63 67 71 61 38 59 64 67 62 57 53 49 39 26 25 25 26 27 27 28 31 31 33 39 41 39 38 39 39 39 40 40 37 34 33 32 32
57 56 55 57 58 58 60 63 65 60 54 66 68 64 62 57 56 49 37 32 26 28 31 27 23 25 26 28 29 31 36 37 36 36 36 36 38 40 37 36 38 39 39
60 63 62 63 65 66 65 65 61 58 62 66 67 66 62 59 59 50 42 33 30 31 32 31 29 26 27 28 29 31 36 35 33 32 33 35 35 38 37 33 36 39 41
72 75 65 59 68 69 70 68 60 64 66 66 67 66 63 62 61 54 46 39 36 33 35 36 35 35 32 30 31 30 34 35 30 28 29 33 35 34 35 33 33 36 39
81 75 33 25 27 76 78 73 68 70 71 72 70 67 62 63 62 60 51 43 45 40 35 37 40 40 39 34 33 33 34 36 34 31 28 31 32 32 32 33 32 32 33
82 85 80 24 20 57 79 77 73 74 76 75 74 69 64 61 61 60 56 53 48 50 48 44 41 44 45 40 37 36 37 38 37 36 32 30 32 34 36 35 36 35 36
89 84 80 68 46 62 79 80 69 76 77 73 70 69 63 63 63 64 59 57 54 55 54 52 51 49 49 47 42 40 38 38 40 39 36 35 33 35 38 37 36 38 38
86 82 85 83 79 78 74 78 77 74 71 70 69 68 68 66 64 65 66 62 61 61 61 62 62 58 55 50 48 45 39 37 39 41 39 39 36 35 37 38 38 38 38
83 82 82 84 81 78 72 77 76 71 70 72 75 79 77 72 66 67 69 68 64 66 66 65 64 63 60 55 53 50 45 40 39 40 40 41 40 35 37 37 39 39 39
84 82 83 83 84 80 79 76 72 67 70 76 80 80 79 78 73 72 71 70 69 69 68 68 67 65 63 61 58 54 50 46 43 41 41 43 43 37 37 40 41 40 40
85 83 83 83 83 81 80 77 71 70 74 76 78 77 75 74 73 71 70 70 66 64 68 66 64 66 66 62 58 56 54 50 46 45 44 46 45 42 41 43 44 42 42
87 86 85 84 83 81 80 78 74 69 72 74 73 71 70 69 67 67 68 61 59 60 60 61 61 62 59 62 60 58 55 53 48 47 50 49 49 49 47 47 48 44 41
Wind_Direction
314 316 311 319 325 330 332 334 334 335 335 333 331 331 330 330 331 330 331 330 328 327 327 329 331 334 334 334 334 335 333 329 323 319 315 315 311 304 300 295 289 285 282
310 311 309 314 320 325 332 333 332 333 333 333 333 334 332 333 331 333 333 335 336 337 337 338 339 339 337 338 337 335 335 339 339 330 324 320 317 314 309 306 300 293 286
306 307 308 313 319 323 327 329 330 331 333 334 335 335 334 334 336 336 338 343 348 349 349 347 345 342 342 341 345 344 344 342 341 344 338 328 323 318 312 305 303 301 296
310 309 311 314 318 322 327 330 332 335 336 336 336 335 335 336 341 343 348 347 347 349 340 333 341 347 354 354 353 350 349 350 349 348 347 341 334 325 315 314 303 305 301
318 318 317 319 323 327 329 332 334 335 336 337 339 337 338 342 346 351 351 349 344 331 333 339 341 348 356 356 355 353 353 356 360 0 354 350 343 335 327 313 311 307 303
322 323 326 327 327 329 330 332 333 334 337 339 339 340 343 347 351 351 350 341 323 326 334 340 346 353 358 354 357 356 360 7 8 8 8 7 1 352 343 331 314 306 297
329 329 326 326 327 329 329 331 333 333 336 338 340 346 350 351 348 342 340 325 327 331 336 346 347 353 352 356 1 4 4 9 14 18 19 20 19 14 3 340 334 322 298
328 327 327 327 327 326 326 327 329 330 334 340 346 350 348 341 349 342 323 326 328 336 351 348 354 355 350 359 354 10 9 10 18 23 26 28 31 34 37 35 75 207 217
320 325 330 335 333 329 324 322 324 328 334 339 339 338 341 343 331 307 303 317 330 349 358 2 1 354 360 359 354 5 14 15 17 21 29 31 37 50 66 82 108 100 194
322 325 327 330 331 330 328 321 320 323 322 324 325 336 336 319 298 289 292 317 337 3 8 7 5 355 3 4 357 4 12 21 24 27 28 27 39 51 70 112 142 146 170
321 322 324 328 333 331 326 318 313 313 312 319 328 314 285 280 280 290 300 322 351 8 10 14 4 2 4 7 3 7 12 15 22 30 36 35 34 44 54 74 105 132 134
322 319 330 332 334 337 335 310 300 299 308 312 302 277 267 272 278 289 305 325 357 10 19 15 7 5 8 12 11 4 3 10 15 26 34 38 40 38 43 58 75 92 121
278 297 321 333 327 298 237 250 264 256 301 285 277 270 267 274 287 297 306 334 2 7 14 15 10 10 12 10 12 5 360 7 14 17 22 24 29 32 33 31 47 64 70
309 316 319 323 332 340 242 262 263 292 315 293 286 268 263 276 290 300 313 347 357 3 9 13 11 10 9 11 11 6 2 7 11 14 14 14 16 17 19 26 25 18 20
325 329 322 316 317 312 303 294 291 300 308 289 278 268 278 288 296 305 321 340 348 354 359 3 6 6 7 8 7 5 3 4 5 6 7 7 7 4 3 4 5 5 358
332 335 334 326 321 318 315 313 311 307 297 277 276 280 282 290 293 306 321 330 338 341 343 349 354 356 358 359 0 1 360 0 2 3 4 5 4 3 5 2 358 355 352
336 333 334 327 318 313 315 317 319 308 286 277 277 280 285 291 292 305 315 323 328 331 333 336 340 343 345 347 348 349 351 352 353 356 359 359 1 359 358 358 354 349 346
324 325 337 333 317 310 308 312 316 297 280 281 281 282 286 291 294 303 310 316 320 322 325 327 330 332 335 337 339 340 341 344 345 347 349 351 350 351 352 350 348 346 345
310 326 343 336 334 305 301 306 304 291 282 280 284 286 290 292 295 300 306 311 313 316 318 322 323 324 326 330 331 331 332 334 336 337 338 341 344 344 344 343 341 341 342
313 310 318 328 295 265 293 296 297 288 283 284 283 290 294 296 298 301 305 308 310 310 314 316 317 318 320 323 324 324 324 325 329 331 331 329 334 336 337 335 333 331 333
312 314 316 326 332 281 293 291 301 290 285 289 290 292 297 299 300 301 305 306 308 308 309 311 313 314 315 317 317 317 316 318 322 324 326 326 326 328 330 330 329 328 330
318 319 310 309 312 311 311 296 295 296 291 291 294 297 298 301 303 302 303 303 304 305 306 308 309 311 312 313 314 313 310 311 314 317 321 323 321 321 324 326 327 328 328
320 321 317 312 312 310 311 305 299 298 294 294 295 295 299 301 303 303 302 302 303 303 304 306 307 308 311 312 312 312 310 306 308 312 317 318 317 315 319 321 321 322 323
321 324 321 318 314 314 308 307 306 303 299 295 296 298 300 301 302 302 303 302 302 302 303 305 306 307 309 310 311 312 311 309 307 308 312 314 314 311 313 315 315 317 317
321 323 322 321 318 317 314 311 308 305 302 300 300 302 304 304 304 304 304 304 304 304 305 305 306 307 308 310 311 311 311 309 306 308 309 309 309 308 309 310 311 311 312
322 322 323 322 321 320 316 313 312 311 307 304 305 306 307 307 308 308 309 310 309 309 308 308 308 310 309 311 311 310 309 308 307 306 304 303 303 302 304 306 306 306 307